Flag Weather past 2 weeks in Stafford, England, United Kingdom

Now
43 °F

Drizzle. Low clouds.


Feels Like: 39 °F
Forecast: 41 / 43 °F
Wind: 6 mph from North

Location: Shawbury

Current Time: Nov 26, 2014 at 5:45:22 AM

Latest Report: Nov 26, 2014 at 4:50 AM


Visibility: 1 mi

Pressure: 29.95 "Hg

Humidity: 93%

Dew point: 41 °F

Location of StaffordLocation

Historic Weather in Stafford — Graph

°F

Stafford temperature yesterday

Maximum temperature yesterday: 41 °F (at 3:50 PM)
Minimum temperature yesterday: 27 °F (at 12:50 AM)
Average temperature yesterday: 34 °F

Past Weeks' High & Low Weather Summary

 TemperatureHumidityPressure
High57 °F (Nov 13, 3:50 PM)100% (Nov 15, 4:50 AM)30.33 "Hg (Nov 15, 4:50 AM)
Low27 °F (Nov 25, 12:50 AM)63% (Nov 14, 1:50 PM)29.21 "Hg (Nov 12, 12:50 AM)
Average46 °F91%29.79 "Hg
* Reported Nov 11 4:50 AM — Nov 26 4:50 AM, Stafford, Weather by CustomWeather, © 2014

Note: Actual official high and low records may vary slightly from our data, if they occured in-between our weather recording intervals... More about our weather records

Advertising

Stafford weather history for previous 24 hours

 ConditionsComfort  
Time TempWeatherWind HumidityBarometerVisibility
4:50 AM
Nov 26
43 °FDrizzle. Low clouds.6 mph93%29.95 "Hg1 mi
3:50 AM41 °FRain. Overcast.7 mph100%29.95 "Hg1 mi
2:50 AM41 °FRain. Partly cloudy.8 mph100%29.98 "Hg1 mi
1:50 AM41 °FRain. Partly cloudy.6 mph100%30.01 "Hg2 mi
12:50 AM41 °FRain. Passing clouds.9 mph93%30.01 "Hg2 mi
11:50 PM
Nov 25
41 °FLight rain. Passing clouds.5 mph100%30.04 "Hg2 mi
10:50 PM41 °FLight rain. Passing clouds.2 mph93%30.07 "Hg2 mi
9:50 PM41 °FLight rain. Passing clouds.3 mph93%30.09 "Hg2 mi
8:50 PM41 °FSprinkles. Partly cloudy.5 mph93%30.09 "Hg3 mi
7:50 PM41 °FLight rain. Passing clouds.5 mph93%30.12 "Hg3 mi
6:50 PM39 °FSprinkles. Passing clouds.3 mph100%30.12 "Hg2 mi
5:50 PM39 °FFog.5 mph100%30.12 "Hg4 mi
4:50 PM39 °FLight rain. Mostly cloudy.3 mph100%30.15 "Hg3 mi
3:50 PM41 °FFog.2 mph93%30.15 "Hg4 mi
2:50 PM39 °FFog.1 mph100%30.15 "Hg5 mi
1:50 PM39 °FFog.2 mph93%30.18 "Hg5 mi
12:50 PM36 °FFog.2 mph100%30.18 "Hg3 mi
12:36 PM36 °FFog.1 mph93%30.21 "Hg3 mi
11:50 AM34 °FFog.2 mph81%30.21 "Hg2 mi
11:30 AM34 °FFog.1 mph87%30.24 "Hg2 mi
11:20 AM32 °FIce fog.2 mph93%30.24 "Hg1 mi
11:09 AM30 °FIce fog.1 mph100%30.24 "Hg1 mi
10:50 AM30 °FIce fog.1 mph100%30.24 "Hg0 mi
9:50 AM30 °FIce fog.1 mph93%30.27 "Hg0 mi
8:50 AM28 °FIce fog.3 mph100%30.27 "Hg0 mi
8:28 AM28 °FIce fog.No wind100%30.27 "Hg0 mi
7:50 AM28 °FIce fog.No wind100%30.27 "Hg0 mi
6:50 AM28 °FIce fog.No wind100%30.27 "Hg0 mi
5:50 AM28 °FFog.No wind93%30.27 "Hg0 mi
Weather by CustomWeather, © 2014

See weather overviewHow to use our weather pages